(200930) = 2002 AG160

Discovered at Socorro on 2002-01-13 by LINEAR.

Orbit

Orbit type: Main Belt

Note: WebGL enabled browser required.

epoch2024-03-31.0
epoch JD2460400.5
perihelion date2024-03-18.85765
perihelion JD2460388.35765
argument of perihelion (°)329.84628
ascending node (°)171.77247
inclination (°)1.54435
eccentricity0.1376528
perihelion distance (AU)2.0558123
Tisserand w.r.t. Jupiter3.5
ΔV w.r.t. Earth (km/sec)8.9
semimajor axis (AU)2.3839727
mean anomaly (°)3.25128
mean daily motion (°/day)0.26776380
aphelion distance (AU)2.712
period (years)3.68
P-vector [x]-0.78392282
P-vector [y]0.57487600
P-vector [z]0.23448368
Q-vector [x]-0.62084631
Q-vector [y]-0.72819571
Q-vector [z]-0.29031169
absolute magnitude17.22
phase slope0.15
uncertainty0
referenceMPEC 2024-C145
observations used479
oppositions14
arc length (days)8065
first opposition used2002
last opposition used2024
residual rms (arc-secs)0.72
perturbers coarse indicatorM-v
perturbers precise indicator003Ek
first observation date used2002-01-13.0
last observation date used2024-02-12.0
computer nameMPCLINUX
JD of orbit computation2456406.155259
perihelion JD uncertainty (days)8.1681E-05
argument of perihelion uncertainty (°)1.8467E-04
ascending node uncertainty (°)1.8273E-04
inclination uncertainty (°)5.5393E-06
eccentricity uncertainty 5.5097E-08
perihelion distance uncertainty (AU)1.3344E-07
Minimum Orbit Intersection Distances (in AU)
for orbit epoch: 2460400.5, reference: E2024-GF4
Mercury1.70435
Venus1.33979
Earth1.06921
Mars0.40112
Jupiter2.30048
Saturn6.78678
Uranus16.3493
Neptune27.2588

Observations

494 total observations over interval: 2002 01 13.38204 – 2024 02 12.288877
These data are available for download (format description).

Date (UT) J2000 RA J2000 Dec Magn Location Ref
2002 01 13.38204 09 38 14.65 +12 07 17.8 19.3   704 – Lincoln Laboratory ETS, New Mexico MPS 47512
2002 01 13.39725 09 38 14.12 +12 07 20.7 19.9   704 – Lincoln Laboratory ETS, New Mexico MPS 47512
2002 01 13.41245 09 38 13.64 +12 07 22.9 20.1   704 – Lincoln Laboratory ETS, New Mexico MPS 47512
2002 01 13.42764 09 38 13.12 +12 07 25.4 19.8   704 – Lincoln Laboratory ETS, New Mexico MPS 47512
2002 01 13.44284 09 38 12.72 +12 07 28.1 19.8   704 – Lincoln Laboratory ETS, New Mexico MPS 47512
2002 01 19.40073 09 34 38.57 +12 26 55.4 19.2   704 – Lincoln Laboratory ETS, New Mexico MPS 47512
2002 01 19.41589 09 34 37.85 +12 26 58.5 19.8   704 – Lincoln Laboratory ETS, New Mexico MPS 47512
2002 01 19.43104 09 34 37.20 +12 27 02.6 19.4   704 – Lincoln Laboratory ETS, New Mexico MPS 47512
2002 01 19.44620 09 34 36.58 +12 27 04.8 19.5   704 – Lincoln Laboratory ETS, New Mexico MPS 47512
2002 02 05.27482 09 20 16.97 +13 46 49.5 18.6 R 699 – Lowell Observatory-LONEOS MPS 50003
2002 02 05.30012 09 20 15.50 +13 46 57.1   699 – Lowell Observatory-LONEOS MPS 50003
2002 02 05.32540 09 20 13.89 +13 47 04.7   699 – Lowell Observatory-LONEOS MPS 50003
2002 02 05.35050 09 20 12.40 +13 47 14.3   699 – Lowell Observatory-LONEOS MPS 50003
2002 02 05.35307 09 20 12.30 +13 47 15.0 19.0   644 – Palomar Mountain/NEAT MPS 50003
2002 02 05.37738 09 20 10.82 +13 47 23.1 19.2   644 – Palomar Mountain/NEAT MPS 50003
2002 02 05.39864 09 20 09.62 +13 47 29.2 20.3   644 – Palomar Mountain/NEAT MPS 50003
2002 02 07.31082 09 18 19.85 +13 57 46.8 18.3   704 – Lincoln Laboratory ETS, New Mexico MPS 50003
2002 02 07.32681 09 18 18.87 +13 57 52.2 19.2   704 – Lincoln Laboratory ETS, New Mexico MPS 50003
2002 02 07.34140 09 18 18.00 +13 57 56.9 18.9   704 – Lincoln Laboratory ETS, New Mexico MPS 50003
2002 02 07.35596 09 18 17.12 +13 58 01.8 19.1   704 – Lincoln Laboratory ETS, New Mexico MPS 50003
2002 02 07.37172 09 18 16.13 +13 58 06.4 19.1   704 – Lincoln Laboratory ETS, New Mexico MPS 50003
2002 02 11.24014 09 14 35.21 +14 18 57.2 18.8   704 – Lincoln Laboratory ETS, New Mexico MPS 55301
2002 02 11.25426 09 14 34.39 +14 19 01.6 19.2   704 – Lincoln Laboratory ETS, New Mexico MPS 55301
2002 02 11.26838 09 14 33.54 +14 19 06.9 19.1   704 – Lincoln Laboratory ETS, New Mexico MPS 55301
2002 02 11.28250 09 14 32.69 +14 19 11.7 18.9   704 – Lincoln Laboratory ETS, New Mexico MPS 55301
2002 02 11.29663 09 14 31.83 +14 19 15.9 19.0   704 – Lincoln Laboratory ETS, New Mexico MPS 55301
2002 02 13.19031 09 12 45.67 +14 29 21.7 19.7 V 291 – LPL/Spacewatch II MPS 52539
2002 02 13.21131 09 12 44.45 +14 29 28.5 20.0 V 291 – LPL/Spacewatch II MPS 52539
2002 02 13.23212 09 12 43.24 +14 29 35.2 19.6 V 291 – LPL/Spacewatch II MPS 52539
2002 03 05.24282 08 58 07.01 +15 58 33.6 20.8   644 – Palomar Mountain/NEAT MPS 52539
2002 03 05.26414 08 58 06.32 +15 58 37.9 20.3   644 – Palomar Mountain/NEAT MPS 52539
2002 03 05.28537 08 58 05.71 +15 58 41.7 20.8   644 – Palomar Mountain/NEAT MPS 52539
2002 03 13.13316 08 55 34.49 +16 19 41.7 20.1   644 – Palomar Mountain/NEAT MPS 52539
2002 03 13.15653 08 55 34.16 +16 19 44.9 20.3   644 – Palomar Mountain/NEAT MPS 52539
2002 03 13.17777 08 55 33.86 +16 19 47.5 19.9   644 – Palomar Mountain/NEAT MPS 52539
2004 10 05.26187 02 00 06.17 +10 48 53.6 20.8 V 691 – Steward Observatory, Kitt Peak-Spacewatch MPS 178304
2004 10 05.29103 02 00 04.71 +10 48 44.6 20.9 V 691 – Steward Observatory, Kitt Peak-Spacewatch MPS 178304
2004 10 05.32224 02 00 03.16 +10 48 35.1 20.7 V 691 – Steward Observatory, Kitt Peak-Spacewatch MPS 178304
2004 10 09.26938 01 56 46.24 +10 27 33.4 20.6 V 691 – Steward Observatory, Kitt Peak-Spacewatch MPS 117563
2004 10 09.29647 01 56 44.77 +10 27 24.6 20.5 V 691 – Steward Observatory, Kitt Peak-Spacewatch MPS 117563
2004 10 09.32376 01 56 43.30 +10 27 15.7 20.3 V 691 – Steward Observatory, Kitt Peak-Spacewatch MPS 117563
2004 10 15.31559 01 51 18.23 +09 52 57.9 19.8 R G96 – Mt. Lemmon Survey MPS 117563
2004 10 15.32348 01 51 17.77 +09 52 55.3 20.1 R G96 – Mt. Lemmon Survey MPS 117563
2004 10 15.33135 01 51 17.31 +09 52 52.1 19.9 R G96 – Mt. Lemmon Survey MPS 117563
2004 10 15.33924 01 51 16.83 +09 52 49.5 19.9 R G96 – Mt. Lemmon Survey MPS 117563
2006 03 24.34948 13 27 27.57 -08 01 51.5 19.9 V G96 – Mt. Lemmon Survey MPS 166971
2006 03 24.35566 13 27 27.25 -08 01 49.5 19.7 V G96 – Mt. Lemmon Survey MPS 166971
2006 03 24.36196 13 27 26.96 -08 01 47.3 19.9 V G96 – Mt. Lemmon Survey MPS 166971
2006 03 24.36846 13 27 26.64 -08 01 45.1 19.7 V G96 – Mt. Lemmon Survey MPS 166971
2006 03 25.23751 13 26 47.52 -07 56 51.8 20.2 V 691 – Steward Observatory, Kitt Peak-Spacewatch MPS 166971
2006 03 25.25506 13 26 46.70 -07 56 45.8 20.1 V 691 – Steward Observatory, Kitt Peak-Spacewatch MPS 166971
2006 03 25.27263 13 26 45.81 -07 56 39.7 20.1 V 691 – Steward Observatory, Kitt Peak-Spacewatch MPS 166971
2006 04 07.32224 13 15 36.07 -06 36 07.4 19.0 V 703 – Catalina Sky Survey MPS 168788
2006 04 07.32987 13 15 35.71 -06 36 05.7 19.9 V 703 – Catalina Sky Survey MPS 168788
2006 04 07.33755 13 15 35.28 -06 36 02.7 19.9 V 703 – Catalina Sky Survey MPS 168788
2006 04 07.34519 13 15 34.88 -06 35 59.6 19.4 V 703 – Catalina Sky Survey MPS 168788
2006 04 24.27186 13 01 10.57 -04 55 08.8 19.5 R 699 – Lowell Observatory-LONEOS MPS 169839
2006 04 24.29377 13 01 09.45 -04 55 03.4   699 – Lowell Observatory-LONEOS MPS 169839
2006 04 24.31567 13 01 08.38 -04 54 56.7   699 – Lowell Observatory-LONEOS MPS 169839
2006 04 24.33756 13 01 07.46 -04 54 47.8   699 – Lowell Observatory-LONEOS MPS 169839
2006 04 30.15061 12 57 11.87 -04 27 40.2 20.1 V 691 – Steward Observatory, Kitt Peak-Spacewatch MPS 170765
2006 04 30.16857 12 57 11.13 -04 27 35.6 20.0 V 691 – Steward Observatory, Kitt Peak-Spacewatch MPS 170765
2006 04 30.18659 12 57 10.48 -04 27 31.2 20.3 V 691 – Steward Observatory, Kitt Peak-Spacewatch MPS 170765
2006 05 03.14257 12 55 29.17 -04 15 55.1 20.5 V 691 – Steward Observatory, Kitt Peak-Spacewatch MPS 170765
2006 05 03.16059 12 55 28.55 -04 15 52.0 20.2 V 691 – Steward Observatory, Kitt Peak-Spacewatch MPS 170765
2006 05 03.17860 12 55 27.94 -04 15 47.6 20.2 V 691 – Steward Observatory, Kitt Peak-Spacewatch MPS 170765
2008 10 26.43557 05 09 41.32 +20 42 09.9 20.8 V 691 – Steward Observatory, Kitt Peak-Spacewatch MPS 261340
2008 10 26.45328 05 09 41.11 +20 42 08.0 20.3 V 691 – Steward Observatory, Kitt Peak-Spacewatch MPS 261340
2008 10 26.47100 05 09 40.89 +20 42 06.7 20.4 V 691 – Steward Observatory, Kitt Peak-Spacewatch MPS 261340
2008 11 26.06542 04 49 50.91 +19 46 07.5 19.7 V J75 – OAM Observatory, La Sagra MPS 267408
2008 11 26.07872 04 49 50.06 +19 46 05.6 18.9 V J75 – OAM Observatory, La Sagra MPS 267408
2008 11 26.09192 04 49 49.20 +19 46 04.2 19.4 V J75 – OAM Observatory, La Sagra MPS 267408
2008 12 01.26002 04 44 19.77 +19 34 14.3 19.8   704 – Lincoln Laboratory ETS, New Mexico MPS 267408
2008 12 01.27265 04 44 18.97 +19 34 11.2 20.1   704 – Lincoln Laboratory ETS, New Mexico MPS 267408
2008 12 01.28530 04 44 18.18 +19 34 10.5 19.7   704 – Lincoln Laboratory ETS, New Mexico MPS 267408
2008 12 01.29794 04 44 17.21 +19 34 08.5 19.7   704 – Lincoln Laboratory ETS, New Mexico MPS 267408
2008 12 01.31060 04 44 16.39 +19 34 06.3 20.0   704 – Lincoln Laboratory ETS, New Mexico MPS 267408
2008 12 22.08464 04 22 56.13 +18 51 18.4 20.0 V 691 – Steward Observatory, Kitt Peak-Spacewatch MPS 269970
2008 12 22.10350 04 22 55.15 +18 51 16.8 19.9 V 691 – Steward Observatory, Kitt Peak-Spacewatch MPS 269970
2008 12 22.12236 04 22 54.13 +18 51 15.1 20.0 V 691 – Steward Observatory, Kitt Peak-Spacewatch MPS 269970
2008 12 22.19043 04 22 50.48 +18 51 08.8 19.7 V G96 – Mt. Lemmon Survey MPS 269970
2008 12 22.19516 04 22 50.23 +18 51 08.5 19.7 V G96 – Mt. Lemmon Survey MPS 269970
2008 12 22.19991 04 22 49.98 +18 51 08.0 19.6 V G96 – Mt. Lemmon Survey MPS 269970
2008 12 22.20466 04 22 49.72 +18 51 07.6 19.6 V G96 – Mt. Lemmon Survey MPS 269970
2008 12 29.19966 04 17 30.33 +18 42 24.3 19.7   704 – Lincoln Laboratory ETS, New Mexico MPS 271696
2008 12 29.21232 04 17 29.87 +18 42 22.1 20.3   704 – Lincoln Laboratory ETS, New Mexico MPS 271696
